Wind_Speed
36 36 36 36 36 36 36 36 36 35 35 35 35 36 36 37 38 38 39 39 39 40 41 41 41 42 42 43 43 43 44 43 43 43 44 45 46 46 46 44 44 43 42
36 37 37 37 37 37 37 36 36 36 36 36 37 37 38 38 39 39 39 39 40 41 41 42 42 42 43 44 45 45 45 46 45 45 46 46 47 48 48 46 46 46 45
37 37 37 37 38 38 37 37 37 37 38 38 38 38 38 39 39 40 40 40 40 41 42 43 44 44 44 45 45 46 47 48 49 48 48 48 48 48 49 48 48 48 47
38 38 38 38 38 38 38 38 38 38 38 38 38 38 39 39 39 40 40 41 41 42 42 43 44 45 45 46 47 47 48 49 50 51 51 50 49 49 50 49 50 50 49
39 39 39 39 39 39 39 39 39 39 39 39 39 39 39 40 40 40 40 40 40 41 42 43 43 44 45 47 48 49 49 50 51 52 53 52 51 52 51 51 52 51 51
39 40 40 40 40 41 41 41 40 40 40 40 39 40 40 40 40 40 40 39 39 40 41 42 43 44 46 47 48 50 51 51 52 54 54 55 54 54 55 54 54 54 53
40 41 41 42 42 42 42 41 40 40 40 40 40 40 40 40 40 39 39 38 38 39 40 41 42 43 45 47 49 50 52 53 54 54 56 55 56 55 56 56 55 55 54
42 42 43 43 43 44 43 42 41 41 41 40 40 40 39 39 39 38 38 37 36 37 38 39 40 42 44 46 48 50 51 53 54 56 57 57 57 56 56 58 57 56 56
43 44 44 45 44 44 43 42 41 41 41 40 39 38 38 37 38 37 36 34 34 34 36 37 38 40 42 44 47 49 51 53 54 55 57 59 60 58 56 57 58 58 56
44 45 46 45 45 45 44 42 41 40 40 39 38 38 37 36 36 35 34 32 31 31 32 34 36 37 39 41 43 47 50 52 54 55 57 59 60 60 58 57 57 58 57
46 46 46 46 46 46 44 42 40 40 40 38 37 37 37 35 34 33 32 30 29 28 29 30 32 33 36 38 40 43 46 49 52 54 57 59 60 61 59 58 58 57 56
47 47 47 47 46 45 44 42 40 40 38 37 37 36 35 34 33 32 31 29 27 26 25 26 27 28 30 33 36 39 42 46 49 52 55 58 59 60 60 58 58 58 56
48 48 48 47 46 45 43 41 40 39 38 37 36 35 34 34 33 31 29 27 25 24 23 24 24 25 26 29 32 36 39 42 45 48 51 54 57 59 60 60 59 58 57
48 48 48 47 45 44 42 41 39 38 37 36 35 34 33 33 32 30 27 25 23 22 20 20 20 21 23 25 28 31 34 38 41 44 47 50 54 56 58 58 58 57 56
48 48 48 46 44 42 41 40 39 38 37 35 34 33 32 31 31 28 25 23 22 20 18 17 17 18 20 23 25 28 30 33 37 41 44 47 50 52 54 55 56 56 56
48 48 47 45 43 41 40 39 38 37 36 35 34 31 30 30 29 27 25 22 20 18 16 14 14 15 17 20 23 26 29 30 33 36 40 43 46 48 51 52 53 53 54
49 48 45 43 41 40 38 37 36 36 36 34 33 31 30 29 28 26 24 21 18 15 13 11 11 12 14 17 20 24 26 28 30 32 36 40 42 44 47 49 50 50 51
48 46 43 41 39 38 38 37 35 34 33 32 31 30 29 28 27 25 22 19 16 13 11 9 8 9 12 15 18 21 23 25 27 30 33 36 39 41 44 47 49 49 49
47 44 41 39 38 38 37 35 34 34 32 30 29 28 27 27 25 23 21 17 14 11 8 6 6 8 11 14 16 19 21 23 25 27 30 32 35 38 39 42 45 47 49
44 42 39 37 37 36 35 34 33 32 31 29 28 27 26 25 24 22 19 15 12 10 7 5 4 6 10 13 15 18 20 21 23 25 27 29 32 34 35 38 41 44 47
42 39 37 36 35 35 33 32 31 31 29 28 26 25 24 23 22 20 17 14 11 9 6 4 4 6 9 12 14 16 18 20 22 24 25 26 28 31 33 35 39 42 44
40 37 35 34 33 32 31 30 30 28 27 26 24 23 22 22 20 18 15 13 10 8 5 3 3 6 8 11 14 16 17 18 20 22 24 25 26 28 31 33 36 39 41
37 35 33 32 30 29 28 28 27 25 24 24 23 22 21 20 19 17 15 12 10 8 5 2 2 5 8 10 13 15 17 18 19 20 22 24 26 27 30 32 34 37 40
34 33 31 29 28 27 26 25 24 22 21 22 21 20 19 19 17 16 14 12 10 7 5 3 1 3 6 9 12 14 16 18 18 20 21 22 24 26 28 31 33 35 38
32 31 29 27 25 24 23 23 22 20 19 19 19 18 17 17 16 15 13 12 10 8 6 5 3 2 5 7 10 13 15 17 17 18 20 21 22 25 27 29 32 34 35
30 28 26 24 23 22 21 20 18 17 16 16 16 15 15 15 15 14 13 12 10 8 7 6 4 3 4 6 8 10 13 15 16 17 19 20 21 24 27 28 30 32 34
Wind_Direction
326 325 324 323 321 319 316 314 311 309 307 304 301 298 294 291 289 285 281 277 272 268 264 260 257 254 251 248 243 240 237 235 234 232 228 225 223 222 220 220 219 218 217
329 328 326 325 323 321 319 316 314 311 309 306 303 300 296 293 290 287 282 277 273 268 264 260 257 254 250 247 244 241 237 234 233 230 228 225 223 222 220 219 218 218 217
331 330 328 326 325 323 321 318 316 313 311 308 305 302 299 295 292 289 284 279 274 269 265 261 257 254 250 247 244 241 237 234 232 229 228 226 224 223 220 218 218 218 217
332 331 330 328 327 325 323 320 317 315 313 310 307 305 301 298 294 290 286 281 275 270 265 261 257 253 250 246 243 241 239 236 233 229 227 227 225 223 221 220 219 217 217
333 332 331 330 328 326 323 321 319 316 314 312 309 306 304 300 296 292 288 283 277 271 266 261 257 253 250 247 243 240 238 236 233 229 227 226 225 223 222 220 219 218 218
333 332 331 330 328 326 323 321 319 317 315 313 311 308 305 302 298 295 291 286 279 272 266 261 256 254 251 247 244 240 237 236 233 230 227 225 224 224 222 220 219 218 218
333 332 331 330 328 326 324 322 319 318 317 314 312 310 307 304 301 297 293 287 281 273 266 261 257 254 251 247 244 240 237 235 232 229 226 224 223 222 222 221 219 218 219
332 332 331 330 329 327 325 323 320 319 317 315 313 311 309 307 304 301 296 290 283 275 268 263 258 255 251 248 243 239 236 234 231 228 225 222 222 221 221 222 220 220 219
332 332 331 330 329 327 326 323 321 320 318 316 315 313 312 310 307 304 300 294 287 279 271 264 260 257 252 247 242 237 234 232 230 227 225 222 220 219 219 220 221 219 220
332 332 331 330 329 327 326 324 322 321 320 318 316 315 314 312 310 307 304 299 291 283 275 267 262 257 252 247 241 236 233 231 230 227 225 222 220 219 219 218 218 218 218
331 331 330 329 329 328 327 325 324 323 321 319 318 317 316 315 313 311 308 302 295 287 279 271 265 258 251 245 239 234 231 230 228 227 224 222 220 219 218 217 217 217 217
330 330 330 329 329 328 327 326 325 325 323 321 320 319 319 318 316 314 310 306 299 290 281 275 267 259 250 243 237 232 229 228 226 225 223 221 219 219 218 217 217 216 217
329 329 329 329 329 329 328 327 326 326 324 323 323 322 322 322 319 316 312 309 304 296 286 277 268 259 249 241 236 230 227 225 224 223 221 220 219 219 219 218 217 216 216
329 329 329 329 330 330 329 328 328 327 326 325 324 324 325 325 324 320 316 312 308 301 292 281 268 259 248 238 232 227 224 222 220 219 219 218 218 218 217 218 217 216 216
329 329 329 330 330 329 329 329 329 329 328 328 327 326 326 327 326 324 320 314 311 305 295 284 269 257 246 235 229 223 219 219 217 216 216 216 216 216 216 215 216 216 216
328 329 329 330 330 329 329 329 329 329 330 330 330 330 329 330 329 328 324 319 313 307 299 284 267 255 243 232 224 219 214 213 212 213 213 213 213 213 214 214 214 215 215
327 328 329 329 329 329 329 330 330 330 330 331 331 332 332 333 333 332 329 325 318 311 302 290 268 248 235 225 217 212 209 210 210 211 210 210 211 212 212 212 212 214 214
327 328 328 327 328 329 329 329 330 331 331 332 333 333 334 336 336 336 334 331 327 319 308 295 266 236 222 213 209 206 206 207 208 208 208 208 209 210 211 210 210 211 211
325 326 326 326 327 328 329 329 331 332 333 333 334 335 336 338 338 338 337 334 331 326 313 302 269 228 212 205 200 200 202 204 206 205 206 207 208 208 209 210 210 210 210
323 324 324 325 326 327 328 330 331 332 333 335 336 337 338 340 342 341 341 338 335 330 320 300 257 215 204 201 199 200 202 203 201 201 202 204 205 206 207 208 208 208 209
322 322 322 323 324 326 327 329 331 333 335 336 338 340 342 344 346 346 345 345 342 337 330 303 236 202 201 201 199 197 198 198 199 200 201 202 203 204 204 205 206 206 207
320 320 320 321 324 326 327 329 332 333 335 337 340 343 346 349 350 350 352 351 347 345 339 312 233 208 204 201 197 196 196 196 197 198 200 202 203 204 205 204 205 205 205
316 317 318 319 322 326 327 328 331 334 338 341 343 346 348 350 353 356 358 358 355 353 356 344 232 203 201 200 197 196 197 197 198 198 200 202 203 205 205 205 205 205 205
313 314 315 316 319 323 325 326 329 333 337 341 345 348 352 354 358 2 4 6 7 8 14 22 81 180 187 192 195 196 196 195 197 198 198 200 203 204 204 204 204 204 204
309 311 312 314 316 320 322 323 327 332 336 341 346 350 356 360 2 5 9 12 15 17 21 27 48 133 175 184 189 193 194 195 197 198 199 201 203 203 203 203 203 202 203
305 307 309 311 312 316 318 320 324 330 334 340 346 352 360 5 8 10 11 12 16 22 28 36 48 82 134 163 177 183 188 194 197 197 198 200 203 204 203 202 201 201 202
Height
5778 5773 5767 5761 5756 5751 5746 5741 5736 5732 5728 5724 5721 5717 5714 5711 5709 5707 5706 5705 5704 5704 5705 5707 5709 5711 5714 5717 5721 5725 5730 5735 5741 5746 5751 5756 5763 5768 5775 5781 5787 5794 5800
5771 5765 5759 5753 5748 5742 5737 5732 5727 5722 5718 5714 5710 5706 5703 5699 5697 5694 5692 5691 5691 5691 5691 5693 5695 5697 5700 5704 5708 5712 5718 5723 5729 5735 5740 5746 5752 5758 5764 5771 5778 5785 5792
5764 5758 5751 5745 5739 5734 5728 5722 5717 5712 5708 5703 5699 5695 5691 5687 5684 5681 5679 5678 5677 5677 5677 5678 5680 5683 5686 5690 5694 5699 5704 5710 5716 5723 5729 5735 5741 5747 5754 5761 5768 5775 5782
5757 5750 5744 5738 5731 5725 5719 5713 5708 5702 5697 5692 5687 5683 5679 5675 5671 5668 5665 5663 5662 5662 5662 5663 5665 5668 5671 5675 5679 5684 5690 5696 5702 5709 5717 5723 5730 5736 5743 5750 5758 5765 5773
5750 5743 5736 5730 5723 5717 5711 5704 5698 5692 5687 5681 5676 5671 5666 5662 5658 5654 5651 5648 5647 5646 5646 5647 5649 5652 5656 5659 5664 5669 5675 5681 5688 5695 5703 5710 5717 5725 5732 5739 5747 5754 5762
5743 5736 5729 5722 5715 5708 5702 5695 5689 5682 5676 5671 5665 5660 5654 5649 5644 5640 5636 5634 5632 5631 5631 5631 5633 5636 5640 5643 5648 5654 5660 5666 5673 5681 5689 5697 5705 5712 5720 5728 5736 5744 5753
5736 5729 5722 5714 5707 5700 5693 5686 5679 5673 5666 5660 5654 5648 5642 5636 5631 5626 5622 5619 5617 5615 5615 5616 5617 5620 5623 5627 5632 5637 5643 5650 5658 5666 5675 5682 5691 5700 5708 5717 5724 5733 5742
5729 5721 5714 5706 5699 5691 5684 5677 5670 5663 5656 5649 5643 5636 5630 5624 5618 5613 5609 5605 5602 5600 5600 5600 5602 5604 5607 5610 5615 5621 5627 5635 5643 5651 5660 5668 5676 5685 5694 5704 5712 5720 5729
5721 5714 5706 5698 5690 5683 5675 5667 5660 5653 5646 5638 5632 5625 5619 5613 5607 5601 5596 5592 5589 5586 5585 5585 5587 5588 5591 5594 5599 5605 5612 5619 5626 5635 5644 5653 5662 5672 5681 5691 5700 5708 5717
5714 5706 5698 5690 5682 5674 5666 5659 5651 5643 5636 5629 5622 5615 5609 5603 5596 5590 5585 5580 5577 5574 5572 5572 5572 5573 5575 5578 5583 5589 5597 5604 5611 5620 5629 5639 5648 5658 5668 5678 5688 5697 5706
5707 5699 5691 5683 5674 5666 5658 5650 5642 5635 5627 5620 5613 5606 5599 5593 5586 5580 5575 5570 5566 5563 5561 5559 5559 5559 5561 5564 5569 5576 5582 5589 5596 5605 5614 5625 5635 5645 5655 5665 5675 5686 5696
5700 5692 5683 5675 5666 5658 5650 5642 5634 5626 5619 5611 5604 5597 5590 5583 5577 5571 5565 5560 5556 5553 5550 5548 5548 5548 5549 5553 5557 5563 5569 5576 5584 5592 5602 5612 5623 5633 5643 5653 5663 5673 5683
5692 5684 5675 5667 5658 5650 5642 5634 5626 5618 5611 5604 5596 5589 5582 5575 5569 5562 5557 5552 5547 5544 5541 5540 5539 5539 5540 5543 5547 5552 5558 5565 5573 5581 5591 5601 5610 5620 5630 5641 5652 5662 5672
5684 5676 5667 5659 5651 5642 5634 5626 5619 5611 5604 5597 5589 5582 5576 5568 5561 5555 5549 5544 5540 5537 5534 5532 5531 5531 5532 5535 5539 5543 5549 5556 5564 5572 5580 5589 5599 5609 5620 5631 5642 5652 5662
5676 5668 5660 5651 5643 5635 5627 5620 5612 5605 5597 5590 5583 5576 5569 5563 5555 5549 5543 5538 5534 5530 5527 5525 5524 5524 5526 5528 5532 5537 5542 5549 5556 5564 5572 5580 5590 5600 5610 5621 5631 5642 5652
5668 5660 5652 5644 5636 5629 5621 5613 5605 5599 5591 5584 5577 5570 5564 5557 5550 5544 5538 5533 5528 5525 5522 5520 5519 5519 5520 5523 5526 5531 5537 5543 5550 5557 5565 5573 5582 5592 5602 5612 5623 5633 5643
5661 5653 5645 5637 5630 5622 5615 5608 5601 5593 5586 5579 5572 5565 5559 5552 5545 5539 5533 5528 5524 5520 5518 5516 5515 5515 5516 5519 5522 5527 5533 5539 5545 5552 5560 5567 5576 5585 5594 5604 5614 5624 5634
5653 5645 5638 5631 5623 5617 5609 5602 5595 5588 5582 5575 5568 5561 5554 5548 5542 5536 5530 5525 5521 5517 5515 5513 5512 5513 5514 5517 5520 5525 5530 5536 5542 5548 5555 5563 5571 5579 5588 5597 5606 5616 5625
5645 5638 5631 5624 5617 5611 5604 5597 5590 5583 5577 5570 5564 5558 5551 5545 5538 5533 5527 5523 5519 5516 5513 5512 5511 5512 5513 5516 5520 5524 5529 5534 5539 5545 5551 5558 5566 5574 5582 5590 5599 5608 5618
5637 5630 5624 5618 5611 5605 5599 5592 5586 5579 5573 5566 5560 5554 5548 5542 5536 5530 5525 5521 5518 5515 5513 5511 5511 5511 5513 5516 5519 5523 5527 5532 5537 5543 5549 5555 5562 5569 5577 5585 5593 5601 5610
5629 5623 5617 5611 5606 5600 5594 5588 5582 5575 5569 5563 5557 5551 5546 5540 5534 5529 5524 5520 5517 5515 5512 5511 5511 5512 5513 5516 5519 5522 5526 5531 5536 5541 5546 5552 5559 5566 5572 5580 5587 5595 5603
5622 5616 5611 5605 5600 5595 5589 5583 5578 5572 5566 5561 5555 5549 5544 5539 5533 5528 5524 5520 5517 5515 5513 5511 5511 5512 5514 5516 5518 5522 5526 5530 5534 5539 5545 5550 5556 5562 5569 5576 5583 5590 5598
5614 5609 5604 5600 5595 5590 5585 5580 5574 5569 5564 5559 5553 5548 5543 5538 5533 5529 5525 5521 5518 5516 5514 5512 5512 5512 5513 5515 5518 5521 5525 5529 5533 5538 5543 5548 5553 5559 5565 5572 5579 5586 5593
5607 5602 5598 5594 5590 5585 5581 5576 5571 5567 5562 5557 5552 5547 5543 5538 5534 5529 5526 5522 5519 5517 5515 5514 5513 5513 5514 5516 5518 5521 5524 5528 5532 5536 5541 5546 5551 5556 5562 5568 5575 5581 5588
5599 5595 5592 5588 5584 5581 5577 5573 5569 5564 5560 5556 5552 5547 5543 5539 5535 5531 5527 5524 5521 5519 5517 5516 5515 5515 5515 5516 5518 5521 5524 5528 5531 5535 5539 5543 5548 5553 5559 5565 5571 5578 5585
5591 5588 5585 5582 5579 5576 5573 5569 5566 5562 5559 5555 5551 5548 5544 5540 5536 5533 5529 5526 5524 5522 5520 5518 5517 5517 5517 5518 5519 5521 5524 5527 5530 5534 5537 5541 5546 5551 5556 5562 5568 5574 5581